Miscellaneous Local Product
Issued by NWS North Platte, NE

Home | Current Version | Previous Version | Text Only | Print | Product List | Glossary Off
Versions: 1 2 3 4 5 6 7 8 9 10 11 12 13 14 15 16 17 18 19 20 21 22 23 24 25 26 27 28 29 30 31 32 33 34 35 36 37 38 39 40 41 42 43 44 45 46 47 48 49 50

918
AXUS43 KLBF 101410
MISLBF


WESTERN AND NORTH CENTRAL NEBRASKA HOURLY WEATHER ROUNDUP
NATIONAL WEATHER SERVICE NORTH PLATTE NE
800 AM CST WED FEB 10 2016

NOTE: "FAIR" INDICATES FEW OR NO CLOUDS BELOW 12,000 FEET WITH NO
SIGNIFICANT WEATHER AND/OR OBSTRUCTIONS TO VISIBILITY.

NOTE: STATIONS NOT REPORTING VARIABLES SUCH AS SKY/WEATHER OR
PRESSURE ARE PROVIDED BY THE NEBRASKA DEPARTMENT OF
ROADS...RAWS...AND APRS NETWORKS...AND ARE NOT UNDER
NATIONAL WEATHER SERVICE QUALITY CONTROL.

...OBSERVATIONS IN AND NEAR THE EASTERN PANHANDLE OF NEBRASKA...

CITY           SKY/WX    TMP DP  RH WIND       PRES   REMARKS
PINE RIDGE     CLEAR     37  23  56 W9        29.96S WCI  30
CHADRON        CLOUDY    34  24  67 SW9       30.00R WCI  27
ALLIANCE       CLOUDY    30  22  72 W8        30.00R WCI  22
SIDNEY         CLOUDY    30  21  69 NW12      30.03F WCI  20
CRESCENT LAKE    N/A     36  24  63 NW10        N/A  WCI  28
BIG SPRINGS      N/A     30  25  80 W12         N/A  WCI  20
$$

...OBSERVATIONS IN NORTH CENTRAL NEBRASKA...

CITY           SKY/WX    TMP DP  RH WIND       PRES   REMARKS
VALENTINE      CLEAR     32  26  78 W9        29.88S WCI  24
THEDFORD       CLEAR     34  28  79 W8        29.90F WCI  27
AINSWORTH      CLEAR     32  27  81 W7        29.88S WCI  26
O`NEILL        CLOUDY    26  24  93 W3        29.88S
ORD            CLOUDY    19  17  92 NW3       29.89S
BROKEN BOW     CLEAR     30  24  78 VRB3      29.89F
VALENTINE NWR    N/A     38  26  61 W13         N/A  WCI  30
BUTTE            N/A     25  22  87 CALM        N/A
HALSEY           N/A     36  26  66 W9          N/A  WCI  29
CHAMBERS         N/A     24  20  85 CALM        N/A
EWING            N/A     21  19  93 CALM        N/A
$$

...OBSERVATIONS IN SOUTHWEST NEBRASKA AND FAR NORTHEAST COLORADO...

CITY           SKY/WX    TMP DP  RH WIND       PRES   REMARKS
WRAY           FAIR      30  22  72 SW12      30.06F WCI  21
HOLYOKE        FAIR      34  27  75 W12       30.04F WCI  25
IMPERIAL       CLOUDY    36  22  56 W16       30.01F WCI  26
OGALLALA       CLOUDY    27  22  79 W10       30.00S WCI  18
NORTH PLATTE   CLEAR     28  22  78 W10       29.96F WCI  19
MCCOOK         CLOUDY    29  23  78 W12       29.99F WCI  19
LEXINGTON      CLOUDY    24  21  89 NW10      29.94F WCI  13
PAXTON           N/A     30  26  84 W6          N/A  WCI  24
STAPLETON        N/A     32  26  79 CALM        N/A
GOTHENBURG       N/A     35  25  67 NW5         N/A  WCI  31
CALLAWAY         N/A     37  28  69 NW8         N/A  WCI  31
$$

...OBSERVATIONS IN CENTRAL LINCOLN COUNTY AREA...

CITY           SKY/WX    TMP DP  RH WIND       PRES   REMARKS
N.P. AIRPORT   CLEAR     28  22  78 W10       29.96F WCI  19
N.P. SOUTHEAST   N/A     33  26  76 W5          N/A  WCI  28
N.P. HILLCREST   N/A     31  26  82 W10         N/A  WCI  22
$$

...SOME OBSERVATIONS FROM AROUND THE REGION...

CITY           SKY/WX    TMP DP  RH WIND       PRES   REMARKS
DENVER         CLOUDY    38  14  37 SW14      30.16S WCI  30
LARAMIE        CLOUDY    39  11  31 SW9G25    30.23F WCI  33
CHEYENNE       CLOUDY    41  15  35 W22       30.16R
SCOTTSBLUFF    CLEAR     36  25  64 NW13      30.04R WCI  27
RAPID CITY     CLEAR     40  24  53 NW12      29.89R WCI  33
BISMARCK       CLOUDY    22  17  81 SE9       29.87R WCI  12
PIERRE         CLOUDY    21  19  92 CALM      29.85F
WINNER         FAIR      32  25  75 W8        29.87R WCI  25
SIOUX FALLS    LGT SNOW  17  14  88 E10       29.98F FOG     WCI   5
OMAHA          CLOUDY    26  19  74 S13       30.00F WCI  15
GRAND ISLAND   CLOUDY    23  20  88 SW7       29.91F WCI  15
KANSAS CITY    CLOUDY    25  15  66 S10       30.10F WCI  15
WICHITA        CLEAR     25  15  66 S10       30.13F WCI  15
OKLAHOMA CITY  PTCLDY    29  24  82 S10       30.22F WCI  20
LIBERAL        CLOUDY    30  19  64 W9        30.13S WCI  22
HAYS           CLEAR     34  19  55 W12       30.02F WCI  25
GOODLAND       CLOUDY    35  19  52 W13       30.07S WCI  26
$$




USA.gov is the U.S. government's official web portal to all federal, state and local government web resources and services.